Location: Dehesa de la Cepeda
(40.6574°N, 4.3013°W)
Time: 10:25:32
(UTC+00:00)

Transit 2A Rocket - Pass Details

Date: 05 August 2021
Orbit: 586 x 917 km, 66.7° (Epoch: 24 September)

Event Time Altitude Azimuth Distance (km) Brightness Sun altitude
Rises 12:38:51 0° 191° (S) 2,818 8.3 65.9°
Reaches altitude 10° 12:41:05 10° 184° (S) 1,943 7.7 65.9°
Maximum altitude 12:45:12 43° 113° (ESE) 890 6.1 65.7°
Drops below altitude 10° 12:49:38 10° 42° (NE) 2,094 7.2 65.5°
Sets 12:52:08 0° 36° (NE) 3,066 7.9 65.4°
